Location: Seven Kings
(51.5667°N, 0.1000°E)
Time: 14:45:17
(UTC+00:00)

CZ-4B R/B - Pass Details

Date: 29 October 2020
Orbit: 388 x 461 km, 97.6° (Epoch: 28 November)

Event Time Altitude Azimuth Distance (km) Brightness Sun altitude
Rises 18:38:17 0° 3° (N) 2,405 5.1 -19.3°
Reaches altitude 10° 18:40:35 10° 349° (NNW) 1,518 4.2 -19.6°
Maximum altitude 18:43:11 23° 295° (WNW) 948 3.8 -20.0°
Drops below altitude 10° 18:45:43 10° 241° (WSW) 1,475 4.8 -20.4°
Sets 18:47:55 0° 226° (SW) 2,317 5.6 -20.8°
